Miscellaneous Local Product
Issued by NWS North Platte, NE

Home | Current Version | Previous Version | Text Only | Print | Product List | Glossary On
Versions: 1 2 3 4 5 6 7 8 9 10 11 12 13 14 15 16 17 18 19 20 21 22 23 24 25 26 27 28 29 30 31 32 33 34 35 36 37 38 39 40 41 42 43 44 45 46 47 48 49 50
000
AXUS43 KLBF 241110
MISLBF


WESTERN AND NORTH CENTRAL NEBRASKA HOURLY WEATHER ROUNDUP
NATIONAL WEATHER SERVICE NORTH PLATTE NE
600 AM CDT SUN JUL 24 2016

NOTE: "FAIR" INDICATES FEW OR NO CLOUDS BELOW 12,000 FEET WITH NO
SIGNIFICANT WEATHER AND/OR OBSTRUCTIONS TO VISIBILITY.

NOTE: STATIONS NOT REPORTING VARIABLES SUCH AS SKY/WEATHER OR
PRESSURE ARE PROVIDED BY RAWS AND APRS NETWORKS AND ARE NOT UNDER
NATIONAL WEATHER SERVICE QUALITY CONTROL.

...OBSERVATIONS IN AND NEAR THE EASTERN PANHANDLE OF NEBRASKA...

CITY           SKY/WX    TMP DP  RH WIND       PRES   REMARKS
PINE RIDGE     MOCLDY    55  53  93 E6        30.06F
CHADRON        MOCLDY    60  50  69 E3        30.06F
ALLIANCE       CLOUDY    61  57  87 N5        30.05F
SIDNEY         CLOUDY    63  55  75 W5        30.13R
CRESCENT LAKE    N/A     64  56  75 NE6         N/A
$$

...OBSERVATIONS IN NORTHERN NEBRASKA AND FAR SOUTHERN SOUTH DAKOTA...

CITY           SKY/WX    TMP DP  RH WIND       PRES   REMARKS
WINNER         FAIR      68  55  63 NE6       30.01R
VALENTINE      MOCLDY    62  58  86 CALM      30.03R
THEDFORD       CLOUDY    66  59  78 CALM      30.03S
AINSWORTH      MOCLDY    65  61  86 N3        30.02R
O`NEILL        MOCLDY    64  62  93 W8        29.98R
ORD            CLEAR     66  62  87 NW8       29.97R
BROKEN BOW     CLOUDY    64  61  90 N9        29.99R
VALENTINE NWR    N/A     69  58  68 N3          N/A
BUTTE            N/A     65  61  86 W12         N/A
HALSEY           N/A     66  57  74 CALM        N/A
EWING            N/A     68  65  90 CALM        N/A
$$

...OBSERVATIONS IN SOUTHWEST NEBRASKA AND FAR NORTHEAST COLORADO...

CITY           SKY/WX    TMP DP  RH WIND       PRES   REMARKS
WRAY           FAIR      68  59  73 CALM      30.06R
HOLYOKE        FAIR      66  61  82 W7        30.06S
IMPERIAL       CLOUDY    72  56  57 CALM      30.03R
OGALLALA       CLOUDY    71  56  58 NE5       30.02F
NORTH PLATTE   CLOUDY    68  59  73 E8        29.98F
MCCOOK         CLOUDY    70  62  76 SE5       29.98R
LEXINGTON      CLOUDY    68  62  79 NE7       29.97F
STAPLETON        N/A     67  61  81 CALM        N/A
GOTHENBURG       N/A     72  56  56 CALM        N/A
CALLAWAY         N/A     67  60  78 N6          N/A
$$

...OBSERVATIONS IN CENTRAL LINCOLN COUNTY AREA...

CITY           SKY/WX    TMP DP  RH WIND       PRES   REMARKS
N.P. AIRPORT   CLOUDY    68  59  73 E8        29.98F
N.P. DOWNTOWN    N/A     71  60  67 CALM        N/A
N.P. SOUTHEAST   N/A     69  59  69 CALM        N/A
N.P. HILLCREST   N/A     70  59  68 E14         N/A
$$

...SOME OBSERVATIONS FROM AROUND THE REGION...

CITY           SKY/WX    TMP DP  RH WIND       PRES   REMARKS
DENVER         CLOUDY    66  52  60 W12       30.17R
LARAMIE        CLOUDY    55  44  66 SW9       30.25S
CHEYENNE       LGT RAIN  72  42  34 SW15      30.21S
SCOTTSBLUFF    PTCLDY    63  56  78 CALM      30.05F
RAPID CITY     CLOUDY    66  48  52 N10       30.09F
BISMARCK       CLEAR     61  56  83 NW7       29.99F
PIERRE         PTCLDY    66  54  65 N12       29.96F
SIOUX FALLS    PTCLDY    67  65  93 NW6       29.91R
OMAHA          PTCLDY    78  74  87 N8        29.85R
GRAND ISLAND   CLEAR     69  65  86 NE7       29.94R
KANSAS CITY    PTCLDY    78  71  79 S10       29.88S
WICHITA        MOCLDY    76  68  76 S6        29.92R
OKLAHOMA CITY  PTCLDY    73  71  93 S6        29.94R
DALLAS         PTCLDY    82  71  69 S6        29.92R
AMARILLO       CLOUDY    71  57  61 SW8       30.05S
DODGE CITY     MOCLDY    73  67  81 SW8       29.93F
HAYS           CLOUDY    79  61  53 SE7       29.91S
GOODLAND       CLOUDY    70  64  81 E9        30.03S
$$




USA.gov is the U.S. government's official web portal to all federal, state and local government web resources and services.